Back to catalog

FENGYUN 1C DEB

AlivePO
NORAD 31419·DEBRIS·🇨🇳 China

Launched May 10, 1999 from Taiyuan Satellite Launch Center

Loading…

Next Passes (next 24 hours)

TLE

FreshSource: Space-Track

Epoch: Sep 14, 2026, 08:44 UTC

1 31419U 99025BTF 26257.36395799  .00006735  00000-0  97379-3 0  9995
2 31419  98.7833  98.4203 0038522  54.1824 306.2953 14.76035038690873

Track FENGYUN 1C DEB in real time with AllMySat

Download on the App Store